Flag for Austria Weather past 2 weeks in Krems, Lower Austria, Austria

Now
64 °F

Scattered clouds.


Feels Like: 64 °F
Forecast: 43 / 67 °F
Wind: 16 mph from Northwest

Location: Tulln Airport

Current Time: Apr 21, 2015 at 2:09:14 PM

Latest Report: Apr 21, 2015 at 12:50 PM


Visibility: 37 mi

Pressure: 30.24 "Hg

Humidity: 37%

Dew point: 37 °F

Location of KremsLocation

Historic Weather in Krems — Graph

°F

Krems temperature yesterday

Maximum temperature yesterday: 64 °F (at 3:50 PM)
Minimum temperature yesterday: 37 °F (at 5:50 AM)
Average temperature yesterday: 56 °F

Past Weeks' High & Low Weather Summary

 TemperatureHumidityPressure
High77 °F (Apr 16, 12:50 PM)100% (Apr 13, 5:50 AM)30.51 "Hg (Apr 13, 5:50 AM)
Low36 °F (Apr 6, 8:50 PM)22% (Apr 16, 12:50 PM)29.80 "Hg (Apr 17, 2:50 PM)
Average54 °F57%30.21 "Hg
* Reported Apr 6 12:50 PM — Apr 21 12:50 PM, Krems, Weather by CustomWeather, © 2015

Note: Actual official high and low records may vary slightly from our data, if they occured in-between our weather recording intervals... More about our weather records

Advertising

Krems weather history for previous 24 hours

 ConditionsComfort  
Time TempWeatherWind HumidityBarometerVisibility
12:50 PM
Tue, Apr 21
64 °FScattered clouds.16 mph37%30.24 "Hg37 mi
11:50 AM61 °FScattered clouds.16 mph39%30.27 "Hg37 mi
10:50 AM61 °FScattered clouds.16 mph45%30.27 "Hg37 mi
9:50 AM57 °FPartly sunny.13 mph51%30.27 "Hg37 mi
8:50 AM52 °FPartly sunny.14 mph54%30.30 "Hg37 mi
7:50 AM50 °FPartly sunny.10 mph62%30.27 "Hg37 mi
6:50 AM46 °FPassing clouds.6 mph71%30.27 "Hg37 mi
5:50 AM41 °FPassing clouds.6 mph81%30.24 "Hg19 mi
10:50 PM
Mon, Apr 20
55 °FPassing clouds.12 mph51%30.15 "Hg19 mi
9:50 PM57 °FPassing clouds.9 mph48%30.15 "Hg19 mi
8:50 PM59 °FPartly sunny.10 mph45%30.15 "Hg19 mi
7:50 PM61 °FScattered clouds.9 mph39%30.12 "Hg19 mi
6:50 PM63 °FPartly sunny.14 mph37%30.09 "Hg25 mi
5:50 PM63 °FScattered clouds.14 mph37%30.09 "Hg25 mi
4:50 PM63 °FScattered clouds.16 mph37%30.07 "Hg25 mi
3:50 PM64 °FScattered clouds.16 mph34%30.07 "Hg28 mi
2:50 PM63 °FScattered clouds.16 mph37%30.09 "Hg28 mi
Weather by CustomWeather, © 2015

See weather overviewHow to use our weather pages